Weather History for Delta, CO

Change the Weather History Date:

Friday, March 22, 2013

  Actual Average (KMTJ) Record (KMTJ)
Temperature  
Mean Temperature 43 °F 43 °F  
Max Temperature 57 °F 56 °F 75 °F (2004)
Min Temperature 29 °F 29 °F 21 °F (2005)
Degree Days  
Heating Degree Days 22 22  
Month to date heating degree days 551  
Since 1 July heating degree days 5266  
Cooling Degree Days 0 0  
Month to date cooling degree days 0  
Year to date cooling degree days 0  
Moisture  
Dew Point 12 °F    
Average Humidity 37    
Maximum Humidity 67    
Minimum Humidity 10    
Precipitation  
Precipitation 0.00 in 0.04 in 0.05 in (2001)
Month to date precipitation 0.70  
Year to date precipitation 1.93  
Sea Level Pressure  
Sea Level Pressure 29.77 in    
Wind  
Wind Speed 7 mph (NNW)    
Max Wind Speed 26 mph    
Max Gust Speed 38 mph    
Visibility 10 miles    
Events      
T = Trace of Precipitation, MM = Missing Value Source: NWS Daily Summary

Daily Weather History Graph

Daily Weather History Graph

Search for Another Location

Airport:

Trip Planner

Search our weather history database for the weather conditions in past years. The results will help you decide how hot, cold, wet, or windy it might be!

Date:

Astronomy

Mar. 22, 2013 Rise Set
Actual Time 7:12 AM MDT 7:26 PM MDT
Civil Twilight 6:45 AM MDT 7:53 PM MDT
Nautical Twilight 6:14 AM MDT 8:24 PM MDT
Astronomical Twilight 5:42 AM MDT 8:56 PM MDT
Moon 2:59 PM MDT (3/22) 4:11 AM MDT (3/22)
Length of Visible Light 13h 07m
Length of Day
12h 14m
Waxing Gibbous, 78% of the Moon is Illuminated
Mar 22
Waxing Gibbous
Mar 27
Full
Apr 2
Last Quarter
Apr 10
New
Apr 18
First Quarter

Hourly Weather History & Observations

Time (MDT) Temp. Windchill Dew Point Humidity Pressure Visibility Wind Dir Wind Speed Gust Speed Precip Events Conditions
12:15 AM 33.1 °F 28.7 °F 17.2 °F 52% 29.90 in 10.0 mi ENE 4.6 mph - N/A   Clear
12:35 AM 33.3 °F - 19.4 °F 57% 29.89 in 10.0 mi Calm Calm - N/A   Clear
12:55 AM 33.8 °F - 19.6 °F 56% 29.89 in 10.0 mi Calm Calm - N/A   Clear
1:15 AM 34.0 °F - 16.3 °F 49% 29.89 in 10.0 mi Calm Calm - N/A   Clear
1:35 AM 32.2 °F - 20.7 °F 63% 29.89 in 10.0 mi Calm Calm - N/A   Clear
1:55 AM 33.3 °F 27.9 °F 18.0 °F 53% 29.89 in 10.0 mi East 5.8 mph - N/A   Clear
2:15 AM 31.5 °F 25.8 °F 16.0 °F 53% 29.88 in 10.0 mi NE 5.8 mph - N/A   Clear
2:35 AM 30.9 °F - 18.3 °F 60% 29.89 in 10.0 mi Calm Calm - N/A   Clear
2:55 AM 30.6 °F 24.7 °F 17.2 °F 58% 29.87 in 10.0 mi NE 5.8 mph - N/A   Clear
3:15 AM 30.4 °F 25.6 °F 18.7 °F 62% 29.88 in 10.0 mi NNE 4.6 mph - N/A   Clear
3:35 AM 30.6 °F 23.1 °F 18.1 °F 60% 29.87 in 10.0 mi NNE 8.1 mph - N/A   Clear
3:55 AM 30.0 °F 24.1 °F 18.3 °F 62% 29.87 in 10.0 mi ENE 5.8 mph - N/A   Clear
4:15 AM 29.8 °F 23.9 °F 17.4 °F 60% 29.86 in 10.0 mi ENE 5.8 mph - N/A   Scattered Clouds
4:35 AM 31.1 °F 25.4 °F 19.4 °F 62% 29.85 in 10.0 mi NNE 5.8 mph - N/A   Clear
4:55 AM 30.9 °F 25.2 °F 19.0 °F 61% 29.85 in 10.0 mi NNE 5.8 mph - N/A   Clear
5:15 AM 31.1 °F 27.7 °F 18.5 °F 60% 29.85 in 10.0 mi ENE 3.5 mph - N/A   Clear
5:35 AM 30.6 °F 24.7 °F 18.7 °F 61% 29.85 in 10.0 mi ENE 5.8 mph - N/A   Clear
5:55 AM 31.1 °F 26.4 °F 18.7 °F 60% 29.85 in 10.0 mi NE 4.6 mph - N/A   Scattered Clouds
6:15 AM 31.8 °F - 18.7 °F 58% 29.85 in 10.0 mi Calm Calm - N/A   Mostly Cloudy
6:35 AM 30.9 °F 26.2 °F 19.4 °F 62% 29.84 in 10.0 mi ENE 4.6 mph - N/A   Scattered Clouds
6:55 AM 30.7 °F - 20.1 °F 65% 29.85 in 10.0 mi Calm Calm - N/A   Clear
7:15 AM 29.3 °F - 19.6 °F 67% 29.85 in 10.0 mi Calm Calm - N/A   Clear
7:35 AM 29.1 °F - 19.4 °F 67% 29.85 in 10.0 mi Calm Calm - N/A   Clear
7:55 AM 30.0 °F - 19.8 °F 66% 29.85 in 10.0 mi Calm Calm - N/A   Clear
8:15 AM 29.8 °F 26.3 °F 19.6 °F 66% 29.85 in 10.0 mi ENE 3.5 mph - N/A   Clear
8:35 AM 31.6 °F 25.1 °F 19.2 °F 60% 29.84 in 10.0 mi East 6.9 mph - N/A   Clear
8:55 AM 32.9 °F 29.8 °F 19.6 °F 58% 29.84 in 10.0 mi East 3.5 mph - N/A   Clear
9:15 AM 35.2 °F 31.2 °F 19.8 °F 53% 29.83 in 10.0 mi ESE 4.6 mph - N/A   Clear
9:35 AM 36.9 °F 31.4 °F 19.9 °F 50% 29.83 in 10.0 mi ESE 6.9 mph - N/A   Clear
9:55 AM 38.3 °F 33.9 °F 19.6 °F 47% 29.81 in 10.0 mi ESE 5.8 mph - N/A   Clear
10:15 AM 41.5 °F 38.6 °F 18.3 °F 39% 29.81 in 10.0 mi East 4.6 mph - N/A   Clear
10:35 AM 43.7 °F 41.1 °F 14.7 °F 31% 29.79 in 10.0 mi ESE 4.6 mph - N/A   Clear
10:55 AM 45.1 °F 42.0 °F 12.9 °F 27% 29.78 in 10.0 mi ENE 5.8 mph - N/A   Clear
11:15 AM 46.2 °F 44.1 °F 11.3 °F 24% 29.77 in 10.0 mi NE 4.6 mph - N/A   Clear
11:35 AM 46.9 °F - 10.2 °F 23% 29.76 in 10.0 mi NE 4.6 mph - N/A   Clear
11:55 AM 48.4 °F - 9.1 °F 20% 29.75 in 10.0 mi South 5.8 mph - N/A   Clear
12:15 PM 49.3 °F - 7.7 °F 19% 29.74 in 10.0 mi East 3.5 mph - N/A   Clear
12:35 PM 50.4 °F - 3.2 °F 15% 29.72 in 10.0 mi West 4.6 mph - N/A   Clear
12:55 PM 51.8 °F - 4.5 °F 15% 29.71 in 10.0 mi Calm Calm - N/A   Clear
1:15 PM 52.9 °F - 6.4 °F 15% 29.70 in 10.0 mi Calm Calm - N/A   Clear
1:35 PM 53.4 °F - 6.3 °F 15% 29.68 in 10.0 mi WSW 9.2 mph - N/A   Scattered Clouds
1:55 PM 55.4 °F - 5.9 °F 14% 29.66 in 10.0 mi West 11.5 mph 17.3 mph N/A   Mostly Cloudy
2:15 PM 54.9 °F - 5.0 °F 13% 29.64 in 10.0 mi WNW 12.7 mph 17.3 mph N/A   Overcast
2:35 PM 55.8 °F - 4.3 °F 13% 29.63 in 10.0 mi WSW 8.1 mph 27.6 mph N/A   Mostly Cloudy
2:55 PM 57.4 °F - 6.1 °F 13% 29.62 in 10.0 mi WNW 19.6 mph 25.3 mph N/A   Clear
3:15 PM 57.6 °F - 6.4 °F 13% 29.62 in 10.0 mi WNW 20.7 mph 27.6 mph N/A   Clear
3:35 PM 56.5 °F - 3.7 °F 12% 29.62 in 10.0 mi WNW 18.4 mph 27.6 mph N/A   Clear
3:55 PM 56.8 °F - 2.7 °F 11% 29.62 in 10.0 mi West 17.3 mph 29.9 mph N/A   Clear
4:15 PM 57.4 °F - 0.5 °F 10% 29.61 in 10.0 mi NW 20.7 mph 31.1 mph N/A   Clear
4:35 PM 56.5 °F - -1.1 °F 10% 29.61 in 10.0 mi NW 23.0 mph 35.7 mph N/A   Clear
4:55 PM 56.5 °F - -0.4 °F 10% 29.61 in 10.0 mi WNW 25.3 mph 33.4 mph N/A   Clear
5:15 PM 55.4 °F - 2.1 °F 12% 29.61 in 10.0 mi NW 19.6 mph 32.2 mph N/A   Clear
5:35 PM 53.8 °F - 1.8 °F 12% 29.61 in 10.0 mi WNW 26.5 mph 35.7 mph N/A   Clear
5:55 PM 53.4 °F - 1.0 °F 12% 29.61 in 10.0 mi WNW 26.5 mph 36.8 mph N/A   Clear
6:15 PM 52.2 °F - 0.1 °F 12% 29.62 in 10.0 mi WNW 25.3 mph 35.7 mph N/A   Clear
6:35 PM 50.7 °F - 2.7 °F 14% 29.63 in 10.0 mi NW 21.9 mph 34.5 mph N/A   Clear
6:55 PM 48.0 °F - 6.6 °F 19% 29.64 in 10.0 mi WNW 21.9 mph 38.0 mph N/A   Clear
7:15 PM 46.8 °F - 8.4 °F 21% 29.65 in 10.0 mi WNW 15.0 mph 27.6 mph N/A   Clear
7:35 PM 45.7 °F 41.0 °F 8.2 °F 22% 29.67 in 10.0 mi West 9.2 mph 20.7 mph N/A   Clear
7:55 PM 44.6 °F 38.1 °F 10.9 °F 26% 29.70 in 10.0 mi WNW 13.8 mph 20.7 mph N/A   Clear
8:15 PM 43.7 °F 36.3 °F 11.1 °F 27% 29.71 in 10.0 mi WNW 16.1 mph 26.5 mph N/A   Clear
8:35 PM 43.3 °F 39.2 °F 9.7 °F 25% 29.73 in 10.0 mi West 6.9 mph 17.3 mph N/A   Clear
8:55 PM 41.9 °F 35.0 °F 12.2 °F 30% 29.74 in 10.0 mi West 12.7 mph - N/A   Clear
9:15 PM 41.2 °F 36.6 °F 11.5 °F 30% 29.75 in 10.0 mi West 6.9 mph - N/A   Clear
9:35 PM 41.5 °F 37.8 °F 7.5 °F 25% 29.77 in 10.0 mi SW 5.8 mph - N/A   Clear
9:55 PM 39.2 °F 30.2 °F 12.4 °F 33% 29.77 in 10.0 mi WSW 17.3 mph 21.9 mph N/A   Scattered Clouds
10:35 PM 37.8 °F 27.1 °F 12.0 °F 35% 29.79 in 10.0 mi WSW 21.9 mph 27.6 mph N/A   Clear
10:55 PM 37.4 °F 26.6 °F 12.7 °F 36% 29.79 in 10.0 mi WSW 21.9 mph 28.8 mph N/A   Scattered Clouds
11:15 PM 37.4 °F 27.5 °F 11.7 °F 35% 29.81 in 10.0 mi West 18.4 mph 23.0 mph N/A   Scattered Clouds
11:35 PM 37.0 °F 25.6 °F 9.5 °F 32% 29.83 in 10.0 mi West 24.2 mph 29.9 mph N/A   Scattered Clouds
11:55 PM 36.3 °F 24.4 °F 10.4 °F 34% 29.85 in 10.0 mi West 25.3 mph 33.4 mph N/A   Overcast